• In Österreich
  • Länderverzeichnis
  • Für 7 Tage
  • Wassertemperatur
  • Satellitenkarten
  • Wetterkarte
  • News
  • Widgets
  • user-avatar
    Anmelden

    Stündliche Wetter Solhan

    Heute, 16 Oktober, Dienstag

    Zeit Temperatur Niederschläge Wind Luftdruck Luftfeuchtigkeit
    00:00 +14°C° 0 mm 1 m/S 638 mmHg 55%
    01:00 +14°C° 0 mm 1 m/S 638 mmHg 56%
    02:00 +13°C° 0 mm 1 m/S 638 mmHg 58%
    03:00 +13°C° 0 mm 1 m/S 638 mmHg 59%
    04:00 +13°C° 0 mm 1 m/S 638 mmHg 59%
    05:00 +13°C° 0 mm 1 m/S 638 mmHg 59%
    06:00 +12°C° 0 mm 1 m/S 637 mmHg 60%
    07:00 +14°C° 0 mm 1 m/S 638 mmHg 53%
    08:00 +18°C° 0 mm 1 m/S 639 mmHg 45%
    09:00 +20°C° 0 mm 1 m/S 640 mmHg 38%
    10:00 +21°C° 0 mm 1 m/S 640 mmHg 35%
    11:00 +22°C° 0 mm 1 m/S 640 mmHg 32%
    12:00 +23°C° 0 mm 1 m/S 640 mmHg 29%
    13:00 +24°C° 0.1 mm 1 m/S 640 mmHg 28%
    14:00 +24°C° 0.1 mm 1 m/S 640 mmHg 27%
    15:00 +24°C° 0.1 mm 1 m/S 640 mmHg 26%
    16:00 +22°C° 0.3 mm 1 m/S 639 mmHg 30%
    17:00 +21°C° 0.3 mm 1 m/S 638 mmHg 35%
    18:00 +19°C° 0.3 mm 1 m/S 638 mmHg 39%
    19:00 +18°C° 0.2 mm 1 m/S 638 mmHg 42%
    20:00 +18°C° 0.2 mm 1 m/S 638 mmHg 44%
    21:00 +16°C° 0.2 mm 1 m/S 638 mmHg 47%
    22:00 +16°C° 0.1 mm 1 m/S 638 mmHg 47%
    23:00 +15°C° 0.1 mm 1 m/S 638 mmHg 48%

    Morgen, 17 Oktober, Mittwoch

    Zeit Temperatur Niederschläge Wind Luftdruck Luftfeuchtigkeit
    00:00 +15°C° 0.1 mm 2 m/S 638 mmHg 49%
    01:00 +15°C° 0 mm 2 m/S 638 mmHg 50%
    02:00 +14°C° 0 mm 2 m/S 638 mmHg 50%
    03:00 +14°C° 0 mm 2 m/S 637 mmHg 51%
    04:00 +14°C° 0 mm 2 m/S 637 mmHg 52%
    05:00 +13°C° 0 mm 2 m/S 637 mmHg 53%
    06:00 +13°C° 0 mm 2 m/S 637 mmHg 54%
    07:00 +14°C° 0 mm 2 m/S 637 mmHg 50%
    08:00 +16°C° 0 mm 2 m/S 638 mmHg 45%
    09:00 +17°C° 0 mm 2 m/S 639 mmHg 41%
    10:00 +19°C° 0 mm 2 m/S 639 mmHg 38%
    11:00 +20°C° 0 mm 2 m/S 639 mmHg 35%
    12:00 +21°C° 0 mm 2 m/S 639 mmHg 32%
    13:00 +21°C° 0 mm 2 m/S 639 mmHg 31%
    14:00 +23°C° 0 mm 2 m/S 639 mmHg 30%
    15:00 +23°C° 0 mm 2 m/S 638 mmHg 30%
    16:00 +20°C° 0.3 mm 2 m/S 638 mmHg 35%
    17:00 +19°C° 0.3 mm 2 m/S 637 mmHg 40%
    18:00 +18°C° 0.3 mm 1 m/S 637 mmHg 46%
    19:00 +16°C° 0.1 mm 1 m/S 637 mmHg 48%
    20:00 +16°C° 0.1 mm 1 m/S 637 mmHg 51%
    21:00 +15°C° 0.1 mm 1 m/S 637 mmHg 54%
    22:00 +15°C° 0.1 mm 1 m/S 637 mmHg 55%
    23:00 +14°C° 0.1 mm 1 m/S 637 mmHg 56%

    übermorgen, 18 Oktober, Donnerstag

    Zeit Temperatur Niederschläge Wind Luftdruck Luftfeuchtigkeit
    00:00 +14°C° 0.1 mm 1 m/S 637 mmHg 57%
    01:00 +14°C° 0.1 mm 1 m/S 637 mmHg 59%
    02:00 +13°C° 0.1 mm 1 m/S 637 mmHg 60%
    03:00 +13°C° 0.1 mm 1 m/S 637 mmHg 62%
    04:00 +12°C° 0 mm 1 m/S 637 mmHg 63%
    05:00 +12°C° 0 mm 1 m/S 637 mmHg 64%
    06:00 +12°C° 0 mm 2 m/S 637 mmHg 65%
    07:00 +14°C° 0 mm 2 m/S 637 mmHg 57%
    08:00 +16°C° 0 mm 2 m/S 638 mmHg 50%
    09:00 +18°C° 0 mm 2 m/S 639 mmHg 43%
    10:00 +19°C° 0 mm 2 m/S 639 mmHg 38%
    11:00 +21°C° 0 mm 1 m/S 639 mmHg 34%
    12:00 +23°C° 0 mm 1 m/S 640 mmHg 30%
    13:00 +23°C° 0 mm 2 m/S 639 mmHg 28%
    14:00 +23°C° 0 mm 2 m/S 639 mmHg 27%
    15:00 +24°C° 0 mm 2 m/S 639 mmHg 26%
    16:00 +21°C° 0.1 mm 2 m/S 638 mmHg 30%
    17:00 +20°C° 0.1 mm 1 m/S 638 mmHg 35%
    18:00 +18°C° 0.1 mm 1 m/S 637 mmHg 39%
    19:00 +16°C° 0 mm 1 m/S 637 mmHg 42%
    20:00 +16°C° 0 mm 1 m/S 637 mmHg 44%
    21:00 +14°C° 0 mm 0 m/S 637 mmHg 47%
    22:00 +14°C° 0 mm 1 m/S 637 mmHg 48%
    23:00 +14°C° 0 mm 1 m/S 637 mmHg 49%

    19 Oktober, Freitag

    Zeit Temperatur Niederschläge Wind Luftdruck Luftfeuchtigkeit
    00:00 +14°C° 0 mm 1 m/S 637 mmHg 50%
    01:00 +13°C° 0 mm 1 m/S 637 mmHg 51%
    02:00 +13°C° 0 mm 1 m/S 637 mmHg 52%
    03:00 +13°C° 0 mm 1 m/S 637 mmHg 52%
    04:00 +12°C° 0 mm 1 m/S 637 mmHg 53%
    05:00 +12°C° 0 mm 1 m/S 637 mmHg 54%
    06:00 +12°C° 0 mm 1 m/S 637 mmHg 55%
    07:00 +14°C° 0 mm 1 m/S 637 mmHg 48%
    08:00 +16°C° 0 mm 1 m/S 638 mmHg 41%
    09:00 +20°C° 0 mm 1 m/S 639 mmHg 34%
    10:00 +21°C° 0 mm 1 m/S 639 mmHg 31%
    11:00 +22°C° 0 mm 1 m/S 639 mmHg 29%
    12:00 +23°C° 0 mm 1 m/S 639 mmHg 26%
    13:00 +23°C° 0.1 mm 2 m/S 639 mmHg 27%
    14:00 +22°C° 0.1 mm 3 m/S 639 mmHg 27%
    15:00 +22°C° 0.1 mm 4 m/S 638 mmHg 27%
    16:00 +21°C° 0.1 mm 3 m/S 638 mmHg 32%
    17:00 +19°C° 0.1 mm 3 m/S 638 mmHg 38%
    18:00 +18°C° 0.1 mm 2 m/S 637 mmHg 43%
    19:00 +17°C° 0.1 mm 2 m/S 637 mmHg 47%
    20:00 +16°C° 0.1 mm 1 m/S 637 mmHg 50%
    21:00 +16°C° 0.1 mm 1 m/S 638 mmHg 54%
    22:00 +15°C° 0.1 mm 1 m/S 637 mmHg 56%
    23:00 +15°C° 0.1 mm 1 m/S 637 mmHg 58%

    20 Oktober, Samstag

    Zeit Temperatur Niederschläge Wind Luftdruck Luftfeuchtigkeit
    00:00 +14°C° 0.1 mm 1 m/S 637 mmHg 60%
    01:00 +13°C° 0.1 mm 1 m/S 637 mmHg 61%
    02:00 +13°C° 0.1 mm 1 m/S 636 mmHg 63%
    03:00 +12°C° 0.1 mm 1 m/S 636 mmHg 64%
    04:00 +12°C° 0 mm 1 m/S 636 mmHg 65%
    05:00 +12°C° 0 mm 1 m/S 636 mmHg 66%
    06:00 +12°C° 0 mm 1 m/S 636 mmHg 67%
    07:00 +14°C° 0 mm 1 m/S 637 mmHg 60%
    08:00 +15°C° 0 mm 1 m/S 637 mmHg 52%
    09:00 +18°C° 0 mm 1 m/S 638 mmHg 45%
    10:00 +19°C° 0 mm 2 m/S 638 mmHg 41%
    11:00 +20°C° 0 mm 2 m/S 638 mmHg 38%
    12:00 +21°C° 0 mm 3 m/S 638 mmHg 35%
    13:00 +21°C° 0 mm 4 m/S 638 mmHg 35%
    14:00 +21°C° 0 mm 4 m/S 638 mmHg 34%
    15:00 +21°C° 0 mm 5 m/S 637 mmHg 34%
    16:00 +20°C° 0.1 mm 4 m/S 637 mmHg 40%
    17:00 +18°C° 0.1 mm 3 m/S 636 mmHg 46%
    18:00 +16°C° 0.1 mm 2 m/S 636 mmHg 52%
    19:00 +16°C° 0.3 mm 2 m/S 636 mmHg 56%
    20:00 +15°C° 0.3 mm 1 m/S 636 mmHg 60%
    21:00 +14°C° 0.3 mm 1 m/S 636 mmHg 64%
    22:00 +14°C° 0.3 mm 1 m/S 636 mmHg 66%
    23:00 +14°C° 0.3 mm 1 m/S 635 mmHg 67%

    21 Oktober, Sonntag

    Zeit Temperatur Niederschläge Wind Luftdruck Luftfeuchtigkeit
    00:00 +14°C° 0.3 mm 1 m/S 635 mmHg 69%
    01:00 +13°C° 0.3 mm 1 m/S 635 mmHg 71%
    02:00 +13°C° 0.3 mm 1 m/S 635 mmHg 73%
    03:00 +12°C° 0.3 mm 1 m/S 634 mmHg 75%
    04:00 +12°C° 0.2 mm 1 m/S 634 mmHg 77%
    05:00 +12°C° 0.2 mm 1 m/S 634 mmHg 80%
    06:00 +11°C° 0.2 mm 1 m/S 634 mmHg 82%
    07:00 +13°C° 0.1 mm 1 m/S 635 mmHg 74%
    08:00 +14°C° 0.1 mm 1 m/S 635 mmHg 67%
    09:00 +16°C° 0.1 mm 1 m/S 636 mmHg 60%
    10:00 +17°C° 0.2 mm 2 m/S 636 mmHg 55%
    11:00 +18°C° 0.2 mm 3 m/S 636 mmHg 51%
    12:00 +19°C° 0.2 mm 4 m/S 636 mmHg 46%
    13:00 +19°C° 0.7 mm 4 m/S 636 mmHg 47%
    14:00 +19°C° 0.7 mm 5 m/S 635 mmHg 48%
    15:00 +17°C° 0.7 mm 5 m/S 635 mmHg 49%
    16:00 +17°C° 1.6 mm 4 m/S 635 mmHg 55%
    17:00 +16°C° 1.6 mm 3 m/S 635 mmHg 62%
    18:00 +15°C° 1.6 mm 2 m/S 634 mmHg 68%
    19:00 +15°C° 1.3 mm 2 m/S 635 mmHg 69%
    20:00 +14°C° 1.3 mm 2 m/S 635 mmHg 70%
    21:00 +14°C° 1.3 mm 1 m/S 635 mmHg 72%
    22:00 +14°C° 0.6 mm 1 m/S 635 mmHg 73%
    23:00 +14°C° 0.6 mm 1 m/S 635 mmHg 74%
    Mehr zeigen